Weather History for Tarboro, NC

Change the Weather History Date:

Friday, August 2, 2013

  Actual Average Record
Temperature  
Mean Temperature 80 °F -  
Max Temperature 93 °F 90 °F 97 °F (1958)
Min Temperature 70 °F 66 °F 53 °F (1990)
Cooling Degree Days 15    
Growing Degree Days 30 (Base 50)    
Moisture  
Dew Point 70 °F    
Average Humidity 74    
Maximum Humidity 95    
Minimum Humidity 48    
Precipitation  
Precipitation 0.01 in - - ()
Sea Level Pressure  
Sea Level Pressure 29.97 in    
Wind  
Wind Speed 3 mph (SW)    
Max Wind Speed 7 mph    
Max Gust Speed -    
Visibility 8 miles    
Events Fog , Rain    
Averages and records for this station are not official NWS values.
T = Trace of Precipitation, MM = Missing Value Source: NWS Daily Summary

Daily Weather History Graph

Daily Weather History Graph

Search for Another Location

Airport:

Trip Planner

Search our weather history database for the weather conditions in past years. The results will help you decide how hot, cold, wet, or windy it might be!

Date:

Astronomy

Aug. 02, 2013 Rise Set
Actual Time 6:18 AM EDT 8:13 PM EDT
Civil Twilight 5:50 AM EDT 8:41 PM EDT
Nautical Twilight 5:16 AM EDT 9:15 PM EDT
Astronomical Twilight 4:39 AM EDT 9:52 PM EDT
Moon 2:39 AM EDT (8/2) 5:08 PM EDT (8/2)
Length of Visible Light 14h 51m
Length of Day
13h 55m
Waning Crescent, 16% of the Moon is Illuminated
Aug 2
Waning Crescent
Aug 6
New
Aug 14
First Quarter
Aug 20
Full
Aug 28
Last Quarter

Hourly Weather History & Observations

Time (EDT) Temp. Heat Index Dew Point Humidity Pressure Visibility Wind Dir Wind Speed Gust Speed Precip Events Conditions
12:15 AM 75.2 °F - 72.0 °F 90% 29.94 in 7.0 mi NW 6.9 mph - N/A   Scattered Clouds
12:35 AM 75.2 °F - 72.1 °F 90% 29.93 in 7.0 mi Calm Calm - N/A   Mostly Cloudy
12:55 AM 75.0 °F - 72.0 °F 90% 29.92 in 7.0 mi SW 3.5 mph - N/A   Mostly Cloudy
1:15 AM 74.5 °F - 71.8 °F 91% 29.92 in 7.0 mi SW 3.5 mph - N/A   Mostly Cloudy
1:35 AM 74.5 °F - 71.8 °F 91% 29.91 in 7.0 mi Calm Calm - N/A   Overcast
1:55 AM 74.8 °F - 72.0 °F 91% 29.91 in 7.0 mi SSW 6.9 mph - N/A   Overcast
2:15 AM 74.8 °F - 72.1 °F 91% 29.91 in 7.0 mi WSW 3.5 mph - N/A   Mostly Cloudy
2:35 AM 75.2 °F - 72.3 °F 91% 29.91 in 7.0 mi SSW 5.8 mph - 0.01 in Rain Rain
2:55 AM 75.2 °F - 72.5 °F 91% 29.90 in 7.0 mi SSW 4.6 mph - 0.01 in   Mostly Cloudy
3:15 AM 75.2 °F - 72.5 °F 91% 29.90 in 7.0 mi SW 3.5 mph - N/A   Mostly Cloudy
3:35 AM 75.0 °F - 72.5 °F 92% 29.90 in 7.0 mi Calm Calm - N/A   Scattered Clouds
3:55 AM 74.7 °F - 72.3 °F 92% 29.90 in 5.0 mi Calm Calm - N/A   Mostly Cloudy
4:15 AM 74.1 °F - 71.8 °F 92% 29.90 in 4.0 mi Calm Calm - N/A   Scattered Clouds
4:35 AM 73.6 °F - 71.6 °F 93% 29.91 in 4.0 mi West 3.5 mph - N/A   Scattered Clouds
4:55 AM 73.0 °F - 71.1 °F 93% 29.91 in 2.5 mi Calm Calm - N/A   Clear
5:15 AM 72.5 °F - 70.5 °F 93% 29.92 in 4.0 mi Calm Calm - N/A   Clear
5:35 AM 71.6 °F - 69.8 °F 94% 29.93 in 0.2 mi Calm Calm - N/A Fog Fog
5:55 AM 71.1 °F - 69.3 °F 94% 29.93 in 0.2 mi Calm Calm - N/A Fog Fog
6:15 AM 70.3 °F - 68.5 °F 94% 29.95 in 0.2 mi Calm Calm - N/A Fog Fog
6:35 AM 70.0 °F - 68.4 °F 95% 29.96 in 0.2 mi Calm Calm - N/A Fog Fog
6:55 AM 70.3 °F - 68.7 °F 95% 29.96 in 0.2 mi Calm Calm - N/A Fog Fog
8:35 AM 75.7 °F - 70.2 °F 83% 29.99 in 10.0 mi West 4.6 mph - N/A   Clear
8:55 AM 77.4 °F - 70.2 °F 78% 29.99 in 10.0 mi WSW 3.5 mph - N/A   Clear
9:15 AM 78.4 °F - 69.4 °F 74% 30.00 in 10.0 mi WNW 3.5 mph - N/A   Clear
9:35 AM 79.7 °F - 69.1 °F 70% 30.00 in 10.0 mi Calm Calm - N/A   Clear
9:55 AM 80.1 °F 82.9 °F 68.9 °F 69% 30.00 in 10.0 mi Calm Calm - N/A   Clear
10:15 AM 81.0 °F 84.1 °F 68.9 °F 67% 30.00 in 10.0 mi West 3.5 mph - N/A   Clear
10:35 AM 81.7 °F 84.7 °F 68.5 °F 64% 30.00 in 10.0 mi Calm Calm - N/A   Clear
10:55 AM 82.4 °F 85.8 °F 69.1 °F 64% 30.00 in 10.0 mi Calm Calm - N/A   Clear
11:15 AM 83.5 °F 87.4 °F 69.8 °F 63% 30.00 in 10.0 mi Calm Calm - N/A   Clear
11:35 AM 84.6 °F 88.5 °F 69.4 °F 60% 30.01 in 10.0 mi Calm Calm - N/A   Clear
11:55 AM 85.1 °F 88.8 °F 68.7 °F 58% 30.01 in 10.0 mi Calm Calm - N/A   Clear
12:15 PM 86.4 °F 90.7 °F 69.3 °F 57% 29.99 in 10.0 mi Calm Calm - N/A   Clear
12:35 PM 86.9 °F 91.3 °F 69.4 °F 56% 30.00 in 10.0 mi SW 3.5 mph - N/A   Scattered Clouds
12:55 PM 87.1 °F 90.6 °F 68.2 °F 53% 30.00 in 10.0 mi SSW 5.8 mph - N/A   Scattered Clouds
1:15 PM 87.4 °F 90.8 °F 68.0 °F 52% 30.00 in 10.0 mi Calm Calm - N/A   Scattered Clouds
1:35 PM 88.5 °F 91.9 °F 67.8 °F 50% 30.00 in 10.0 mi SW 5.8 mph - N/A   Clear
1:55 PM 88.7 °F 92.2 °F 67.6 °F 50% 29.99 in 10.0 mi WNW 3.5 mph - N/A   Clear
2:15 PM 88.7 °F 92.2 °F 67.8 °F 50% 29.99 in 10.0 mi Calm Calm - N/A   Clear
2:35 PM 88.7 °F 92.2 °F 67.8 °F 50% 29.98 in 10.0 mi SW 4.6 mph - N/A   Scattered Clouds
2:55 PM 89.6 °F 93.0 °F 67.6 °F 48% 29.98 in 10.0 mi SSE 4.6 mph - N/A   Clear
3:15 PM 89.4 °F 93.1 °F 68.2 °F 49% 29.97 in 10.0 mi West 3.5 mph - N/A   Scattered Clouds
3:35 PM 88.7 °F 92.6 °F 68.5 °F 51% 29.97 in 10.0 mi WNW 4.6 mph - N/A   Mostly Cloudy
3:55 PM 90.0 °F 94.1 °F 68.7 °F 49% 29.96 in 10.0 mi NW 3.5 mph - N/A   Scattered Clouds
4:15 PM 90.3 °F 95.2 °F 69.3 °F 50% 29.96 in 10.0 mi NNW 4.6 mph - N/A   Scattered Clouds
4:35 PM 90.3 °F 95.2 °F 69.6 °F 50% 29.97 in 10.0 mi WSW 4.6 mph - N/A   Scattered Clouds
4:55 PM 89.8 °F 93.8 °F 68.0 °F 49% 29.96 in 10.0 mi WSW 3.5 mph - N/A   Clear
5:15 PM 89.8 °F 93.8 °F 68.2 °F 49% 29.96 in 10.0 mi WSW 3.5 mph - N/A   Clear
5:35 PM 89.6 °F 93.9 °F 68.5 °F 50% 29.96 in 10.0 mi SSW 3.5 mph - N/A   Clear
5:55 PM 89.6 °F 93.4 °F 68.0 °F 49% 29.96 in 10.0 mi WSW 3.5 mph - N/A   Clear
6:15 PM 88.5 °F 92.7 °F 69.1 °F 52% 29.95 in 10.0 mi Calm Calm - N/A   Mostly Cloudy
6:35 PM 86.7 °F 92.9 °F 71.8 °F 61% 29.95 in 10.0 mi Calm Calm - N/A   Overcast
6:55 PM 84.7 °F 91.7 °F 73.4 °F 69% 29.96 in 10.0 mi SSW 6.9 mph - N/A   Overcast
7:15 PM 83.5 °F 89.4 °F 72.7 °F 70% 29.97 in 10.0 mi SW 5.8 mph - N/A   Mostly Cloudy
7:35 PM 82.8 °F 88.2 °F 72.3 °F 71% 29.97 in 10.0 mi SW 3.5 mph - N/A   Mostly Cloudy
7:55 PM 81.7 °F 86.7 °F 72.9 °F 74% 29.98 in 10.0 mi Calm Calm - N/A   Scattered Clouds
8:15 PM 81.0 °F 85.8 °F 73.0 °F 77% 29.98 in 10.0 mi South 5.8 mph - N/A   Overcast
8:35 PM 80.2 °F 84.5 °F 72.7 °F 78% 29.99 in 10.0 mi South 4.6 mph - N/A   Scattered Clouds
8:55 PM 79.3 °F - 72.7 °F 80% 30.00 in 10.0 mi SE 3.5 mph - N/A   Scattered Clouds
9:15 PM 78.6 °F - 72.9 °F 82% 30.00 in 10.0 mi SSE 3.5 mph - N/A   Scattered Clouds
9:35 PM 77.9 °F - 72.7 °F 84% 30.01 in 10.0 mi Calm Calm - N/A   Clear
9:55 PM 77.7 °F - 72.0 °F 82% 30.01 in 10.0 mi Calm Calm - N/A   Clear
10:15 PM 77.2 °F - 71.6 °F 83% 30.02 in 10.0 mi Calm Calm - N/A   Clear
10:35 PM 76.6 °F - 71.8 °F 85% 30.02 in 10.0 mi Calm Calm - N/A   Scattered Clouds
10:55 PM 76.3 °F - 71.8 °F 86% 30.02 in 10.0 mi Calm Calm - N/A   Clear
11:15 PM 75.7 °F - 71.6 °F 87% 30.01 in 10.0 mi Calm Calm - N/A   Clear
11:35 PM 74.8 °F - 71.6 °F 90% 30.02 in 10.0 mi Calm Calm - N/A   Clear
11:55 PM 74.8 °F - 72.0 °F 91% 30.02 in 10.0 mi Calm Calm - N/A   Mostly Cloudy